Regional Weather Roundup
Issued by NWS

Home | Current Version | Previous Version | Text Only | Print | Product List | Glossary Off
Versions: 1 2 3 4 5 6 7 8 9 10 11 12 13 14 15 16 17 18 19 20 21 22 23 24 25 26 27

000
ASUS45 KBOU 260207
RWRCO

WEATHER ROUNDUP FOR COLORADO
NATIONAL WEATHER SERVICE DENVER/BOULDER CO
800 PM MDT THU AUG 25 2016

NOTE: "FAIR" INDICATES FEW OR NO CLOUDS BELOW 12000 FEET WITH NO
SIGNIFICANT WEATHER AND/OR OBSTRUCTIONS TO VISIBILITY.

COZ001>005-013-030-031-260300-
...NORTHWEST COLORADO...

CITY           SKY/WX    TMP DP  RH WIND       PRES   REMARKS
CRAIG          LGT RAIN  61  39  44 VRB5      30.22R
HAYDEN         CLOUDY    61  30  31 NW21G29   30.22R
MEEKER         CLOUDY    59  39  47 S28G38    30.21R
MOUNT WERNER   NOT AVBL
STEAMBOAT SPGS MOCLDY    62  32  32 CALM      30.22R
WALDEN         MOCLDY    55  34  44 CALM      30.29F
$$

COZ006>008-011-260300-
...WEST CENTRAL VALLEYS...

CITY           SKY/WX    TMP DP  RH WIND       PRES   REMARKS
GRAND JUNCTION FAIR      60  49  66 VRB5      30.17F
MONTROSE       MOCLDY    56  47  71 NW5       30.29R
EAGLE          CLOUDY    55  46  71 SW13G20   30.33R
RIFLE          LGT RAIN  53  52  96 E8        30.31R
DELTA          CLOUDY    62  50  66 SE9       30.25R
NUCLA          CLOUDY    55  50  82 SE5       30.29S
$$

COZ017>023-064>068-260300-
...SOUTHWEST COLORADO...

CITY           SKY/WX    TMP DP  RH WIND       PRES   REMARKS
DURANGO        MOCLDY    64  44  48 CALM      30.22R
CORTEZ         LGT RAIN  56  50  80 NW12      30.33R
PAGOSA SPRINGS FAIR      57  46  66 CALM      30.30R
TELLURIDE      TSTM      50  42  74 W8G17     30.42R
WOLF CREEK PAS FAIR      41  32  70 SW10      30.56S THUNDER
$$

COZ009-010-012-014-032>034-037-058>063-260300-
...CENTRAL COLORADO...

CITY           SKY/WX    TMP DP  RH WIND       PRES   REMARKS
ASPEN          RAIN      48  45  89 SE3       30.39R
BUENA VISTA    FAIR      53  41  64 E6        30.33S
COPPER MTN     SNOW      37  34  87 MISG      30.55R VSB 1/2
BERTHOUD PASS  HAZE      34  21  60 SE3       30.55S THUNDER VSB 1/4
COTTONWOOD PAS FAIR      50  41  71 CALM      30.42F
GUNNISON       CLOUDY    52  37  58 N9        30.37R
KREMMLING      MOCLDY    55  39  54 W5        30.28R
LEADVILLE      LGT RAIN  42  38  85 N12G22    30.44R
MONARCH PASS   FOG       37  37 100 CALM      30.64S VSB 1/4
SALIDA         FAIR      55  44  66 SE12G22   30.38S
SUNLIGHT       RAIN      37  37 100 NE6       30.53S
WILKERSON PASS FAIR      37  34  87 S9G16     30.53S
$$

COZ069>075-260300-
...SAN LUIS VALLEY/SANGRE DE CRISTO MOUNTAINS...

CITY           SKY/WX    TMP DP  RH WIND       PRES   REMARKS
ALAMOSA        FAIR      56  42  59 N7        30.29R
LA VETA PASS   FAIR      45  37  76 NE10      30.47S
SAGUACHE       FAIR      50  45  81 S5        30.32F
$$

COZ035-036-038>040-260300-
...NORTHERN COLORADO FRONT RANGE...

CITY           SKY/WX    TMP DP  RH WIND       PRES   REMARKS
DENVER INTL AP MOCLDY    55  51  86 SE7       30.22F
DMNS CITY PARK   N/A     57  50  78 SE5G10    30.23S
AURORA         MOCLDY    54  51  89 S6        30.23F
FRONT RANGE AP MOCLDY    57  54  88 S5        30.24F
ERIE MUNI ARPT FAIR      58  49  72 CALM      30.22S
BOULDER MUN AP FAIR      59  48  67 CALM      30.22S
CENTENNIAL     FAIR      56  47  71 SW6       30.24F
BROOMFIELD     MOCLDY    59  50  72 CALM      30.25S
FORT COLLINS   FAIR      57  48  72 SE8       30.21S
LONGMONT       FAIR      62  51  68 CALM      30.23S
$$

COZ041-046-047-076>085-087-088-260300-
...PIKES PEAK/PALMER DIVIDE AND SOUTHERN FOOTHILLS...

CITY           SKY/WX    TMP DP  RH WIND       PRES   REMARKS
COLO. SPRINGS  MOCLDY    56  46  69 NW7       30.28F
A. F. ACADEMY  FAIR      53  47  79 N6        30.28F
SCHRIEVER AFB  NOT AVBL
ELLICOTT       MIX PCPN N/A N/A N/A NW6       30.25F
FALCON         FAIR      53  46  78 NW5       30.31S
FORT CARSON    MOCLDY    55  47  72 NW8       30.24F
LIMON          FAIR      55  51  86 N7        30.24S
MONUMENT HILL  FAIR      48  46  93 SW5       30.32S
TRINIDAD       CLOUDY    60  50  69 W13       30.21R
$$

COZ042>045-048>051-090-091-260300-
...NORTHEAST COLORADO...

CITY           SKY/WX    TMP DP  RH WIND       PRES   REMARKS
GREELEY ARPT   FAIR      59  48  67 SW3       30.21S
AKRON          FAIR      63  46  54 W3        30.21R
BURLINGTON     FAIR      63  48  58 E10       30.20S
WRAY           FAIR      68  45  42 E8        30.18S
STERLING       FAIR      68  45  42 S7        30.16S
HOLYOKE        FAIR      63  48  59 SE7       30.18S
FORT MORGAN    RAIN      56  51  82 NW5       30.19F
$$

COZ086-089-092>099-260300-
...SOUTHEAST COLORADO...

CITY           SKY/WX    TMP DP  RH WIND       PRES   REMARKS
PUEBLO         MOCLDY    64  55  72 SW5       30.20S
LA JUNTA       FAIR      69  55  60 E13       30.15F
LAMAR          FAIR      67  57  70 E9        30.15R
SPRINGFIELD      N/A     61  58  90 E10       30.18R
$$




USA.gov is the U.S. government's official web portal to all federal, state and local government web resources and services.